This is the latest recevied weather packets stored in our database for station/object KI4BSX. If no packets are shown the sender has not sent any weather packets the latest 10 day(s).
| Time | Temp. | Humidity | Pressure | Rain* | Wind** | Luminosity | Snow |
|---|---|---|---|---|---|---|---|
| 1778185006 | 23.33° C | 79% | 1012 hPa | 0 mm | - | - | - |
| 1778184703 | 23.89° C | 81% | 1012.1 hPa | 0 mm | - | - | - |
| 1778184399 | 23.89° C | 82% | 1012.1 hPa | 0 mm | - | - | - |
| 1778184095 | 23.89° C | 84% | 1012 hPa | 0 mm | - | - | - |
| 1778183792 | 23.33° C | 85% | 1012.2 hPa | 0 mm | - | - | - |
| 1778183489 | 23.33° C | 87% | 1012.1 hPa | 0 mm | - | - | - |
| 1778183186 | 22.78° C | 88% | 1012.2 hPa | 0 mm | - | - | - |
| 1778182881 | 22.78° C | 89% | 1012.3 hPa | 0 mm | - | - | - |
| 1778182579 | 22.78° C | 90% | 1012.4 hPa | 0 mm | - | - | - |
| 1778182276 | 23.33° C | 91% | 1012.3 hPa | 0 mm | - | - | - |
| 1778181972 | 23.33° C | 92% | 1012.3 hPa | 0 mm | - | - | - |
| 1778181669 | 23.89° C | 93% | 1012.4 hPa | 0 mm | - | - | - |
| 1778181364 | 23.89° C | 94% | 1012.3 hPa | 0 mm | - | - | - |
| 1778181061 | 23.89° C | 95% | 1012.5 hPa | 0 mm | - | - | - |
| 1778180759 | 23.89° C | 96% | 1012.3 hPa | 0 mm | - | - | - |
| 1778180458 | 23.89° C | 97% | 1012.2 hPa | 0 mm | - | - | - |
| 1778180155 | 23.89° C | 98% | 1012.3 hPa | 0 mm | - | - | - |
| 1778179852 | 23.33° C | 98% | 1012.6 hPa | 0 mm | - | - | - |
| 1778179550 | 23.89° C | 98% | 1012.8 hPa | 0 mm | - | - | - |
| 1778179248 | 23.33° C | 99% | 1012.5 hPa | 0 mm | - | - | - |
| 1778178943 | 22.78° C | 99% | 1012.5 hPa | 0 mm | - | - | - |
| 1778178641 | 23.33° C | 99% | 1012.5 hPa | 0 mm | - | - | - |
| 1778178337 | 23.33° C | 99% | 1012.6 hPa | 0 mm | - | - | - |
| 1778178033 | 23.33° C | 99% | 1012.8 hPa | 0 mm | - | - | - |
| 1778177730 | 22.22° C | 99% | 1012.7 hPa | 0 mm | - | - | - |
* Rain latest hour (hover to see other rain measurements)
** Current wind speed in m/s (hover to see current wind gust speed)